EHI
5 11 21 28 24 16 10 7 7 7 8 8 9 12 14 16 17 18 19 16 11 6 4 2 1 0 0 0 0 0 0 0 0 2 7 8 6 5 6 6 3 1 0
13 17 28 32 28 20 13 9 7 7 8 8 8 9 11 12 14 15 16 14 9 5 3 2 1 0 0 0 0 0 0 0 0 1 3 4 4 4 5 4 2 1 0
23 24 32 38 34 26 18 13 10 9 9 8 8 9 10 10 10 10 10 9 6 3 2 1 0 0 0 0 0 0 0 0 0 0 1 1 1 3 5 5 4 2 1
27 26 33 43 43 35 25 18 13 11 10 9 8 9 10 10 8 6 5 5 4 2 1 0 0 0 0 0 0 0 0 0 0 0 0 0 1 3 7 9 7 3 1
26 27 35 47 50 42 31 22 15 13 11 9 6 6 7 7 6 5 3 3 2 1 0 0 0 0 0 0 0 0 0 0 0 0 0 0 0 3 8 11 10 5 3
28 29 38 49 51 44 34 25 18 14 12 8 4 3 3 4 4 4 3 2 2 1 0 0 0 0 0 0 0 0 0 0 0 0 0 0 1 3 9 13 12 9 6
33 33 38 45 47 43 36 28 21 15 12 8 4 1 1 1 2 2 2 2 2 1 0 0 0 0 0 0 0 0 0 0 1 1 1 0 1 4 9 13 15 12 9
32 32 34 38 40 40 37 30 22 17 13 7 3 1 0 0 0 1 1 2 1 0 0 0 0 0 0 0 1 1 1 0 1 1 1 0 2 5 9 12 15 15 12
26 27 28 29 32 35 34 29 24 20 16 10 3 1 0 0 0 0 0 0 0 0 0 0 0 0 0 0 1 2 2 1 0 1 1 1 3 7 9 12 15 15 13
21 21 21 22 24 27 28 26 25 24 21 14 6 2 1 0 0 0 0 0 0 1 1 1 1 1 1 0 1 2 2 1 0 0 0 2 6 9 10 12 14 12 9
16 14 14 15 16 19 22 23 22 22 20 14 9 6 5 3 1 0 0 1 1 2 3 3 3 2 2 1 2 2 2 1 0 0 1 4 9 12 12 13 12 8 5
14 11 10 11 12 13 16 18 17 15 14 11 10 9 8 5 3 1 0 1 2 2 3 4 4 2 2 2 2 2 2 1 0 1 3 8 13 16 17 15 11 6 4
17 13 11 11 10 9 11 13 13 10 9 9 8 8 8 6 3 1 0 1 1 1 1 2 1 1 1 3 3 2 1 0 0 1 4 8 13 18 20 17 12 7 5
23 18 14 12 9 7 9 12 12 10 9 7 5 5 6 5 2 1 0 0 0 0 1 0 0 0 1 1 1 1 0 0 0 0 2 6 11 17 20 17 13 9 7
27 24 20 17 12 10 12 13 13 10 7 5 4 3 4 3 2 0 0 0 0 0 0 0 0 1 0 0 0 0 0 0 0 0 1 4 9 13 17 17 14 10 8
33 30 28 25 20 17 16 15 12 9 7 5 4 3 3 3 2 0 0 0 0 0 0 0 0 0 0 0 0 0 0 0 0 0 0 2 6 9 13 15 15 13 11
36 35 34 32 26 22 19 15 11 9 8 7 5 5 4 4 2 0 0 0 0 0 0 0 0 0 0 0 0 0 0 0 0 0 0 1 2 4 7 11 13 12 12
33 33 34 32 27 23 19 15 11 10 10 9 7 6 6 5 2 1 0 0 0 0 0 0 0 0 0 0 1 0 0 0 0 0 0 0 0 1 2 4 6 7 6
30 29 28 28 25 22 19 16 13 10 10 9 8 7 6 5 3 1 0 1 1 1 0 0 0 0 0 0 0 0 0 0 0 0 0 0 0 0 0 0 1 2 1
27 26 24 23 22 19 17 15 13 10 8 8 8 7 7 6 4 2 0 1 2 1 0 0 0 0 0 0 0 0 0 0 0 0 0 0 0 0 0 0 0 0 0
23 24 22 20 18 15 14 13 12 9 7 7 9 10 9 7 4 2 1 1 1 1 0 0 0 0 0 0 0 0 0 0 0 0 0 0 0 0 0 0 0 0 0
23 23 21 18 15 13 11 11 11 9 7 7 9 9 8 6 4 2 1 1 0 0 0 0 0 0 0 0 0 0 0 0 0 0 0 0 0 0 0 0 0 1 1
23 23 21 17 14 12 10 9 9 8 7 7 7 6 5 4 2 1 1 0 0 0 0 0 0 0 0 0 0 0 0 0 0 0 0 0 0 0 0 0 0 0 0
23 22 21 17 14 12 9 8 7 7 6 6 5 4 3 2 1 0 0 0 0 0 0 0 0 0 0 0 0 0 0 0 0 0 0 0 0 0 0 0 0 0 0
23 22 21 19 16 12 8 6 6 6 5 4 4 3 2 1 1 0 0 0 0 0 0 0 0 0 0 0 0 0 0 0 0 0 0 0 0 0 0 0 0 0 0
23 23 21 21 18 12 7 5 5 5 5 4 3 3 1 1 1 0 0 0 0 0 0 0 0 0 0 0 0 0 0 0 0 0 0 0 0 0 0 0 0 0 0
Wind_Speed
7 8 15 15 15 15 15 14 14 14 14 14 14 14 14 14 14 14 13 13 12 11 11 10 9 9 9 9 10 10 10 11 11 12 12 12 12 12 12 13 12 9 13
12 10 16 15 16 15 15 14 14 13 13 13 13 13 13 13 13 12 12 11 10 10 10 9 8 8 8 8 8 8 8 9 9 10 10 10 11 11 12 12 12 8 12
14 10 13 16 16 16 15 15 14 13 13 13 12 12 12 12 11 11 10 10 10 9 8 8 7 7 7 6 6 6 7 7 7 8 8 4 6 11 12 12 13 12 11
14 9 11 16 16 16 15 15 14 14 13 12 12 11 11 11 10 9 9 9 8 8 7 7 6 6 5 5 4 4 4 4 4 5 3 3 3 10 12 13 13 12 11
11 9 12 17 16 16 15 15 14 13 13 12 11 11 10 10 9 8 8 8 7 6 6 6 5 4 4 3 2 2 2 2 2 1 2 3 3 9 11 12 12 12 11
10 8 12 16 16 15 15 15 14 13 12 12 11 10 10 9 8 8 7 7 6 6 5 5 4 4 3 2 1 1 1 1 1 1 1 4 4 10 12 12 12 12 11
11 8 11 15 15 15 15 14 13 13 12 11 10 10 9 8 7 7 7 6 6 5 5 4 4 3 3 2 2 3 3 3 1 1 2 4 6 12 13 13 13 12 12
13 9 10 16 16 15 14 13 13 12 11 10 10 9 8 7 7 6 6 6 6 5 5 5 4 4 4 4 4 4 4 5 2 1 2 4 8 12 13 13 13 13 12
11 10 7 8 11 14 14 13 12 12 11 10 9 9 8 8 7 7 7 7 6 6 6 6 6 6 5 5 5 6 6 6 2 1 2 4 9 13 13 14 14 13 13
9 9 8 6 6 7 8 13 13 12 11 11 10 9 9 8 8 8 7 7 8 8 8 7 7 7 6 6 7 7 7 5 2 2 2 5 11 13 13 14 14 14 14
9 7 7 7 6 6 6 9 10 11 11 10 9 10 8 4 4 5 8 9 10 9 9 9 8 7 7 7 8 8 7 2 2 2 3 8 12 14 14 15 15 15 15
9 8 6 7 6 6 6 5 4 5 5 5 4 5 3 3 4 6 8 11 11 10 10 9 9 8 7 3 5 7 3 3 3 3 4 9 11 13 14 15 15 16 15
10 9 7 7 6 6 4 4 3 2 2 3 4 4 3 3 2 3 2 4 5 6 4 5 5 3 3 3 3 3 3 3 2 3 5 10 11 14 15 16 16 16 16
9 8 7 7 6 6 4 4 4 2 2 2 3 3 3 2 1 1 1 2 2 1 2 2 2 3 3 4 4 4 4 3 3 3 5 10 11 13 15 15 15 15 16
7 6 7 7 7 5 4 3 4 3 3 2 2 2 3 2 1 1 1 1 1 1 2 2 2 3 3 4 4 4 4 4 3 3 3 9 11 13 14 15 15 15 16
6 6 5 6 6 6 4 3 3 3 3 2 2 2 2 2 1 1 1 1 1 1 1 2 2 2 2 2 3 3 3 3 3 3 4 6 10 12 13 14 14 14 15
6 6 6 6 6 5 4 3 2 2 3 2 2 2 2 2 2 1 1 0 1 1 1 1 1 1 2 2 3 3 3 3 3 4 4 3 4 9 12 13 13 14 13
5 6 5 5 5 5 4 3 2 2 3 2 2 2 2 2 2 2 1 0 1 0 0 0 0 1 1 2 2 2 2 2 3 4 4 4 3 4 7 11 12 12 12
6 6 4 4 5 4 3 2 2 2 2 2 2 2 1 1 2 2 1 0 1 1 1 1 1 0 1 2 3 2 2 3 3 4 4 4 4 4 3 6 10 10 11
4 5 5 4 4 3 2 2 2 2 1 1 1 2 2 1 1 1 0 0 1 1 1 1 1 1 1 2 3 3 3 3 3 3 3 2 2 3 3 3 3 5 8
4 4 4 3 2 2 1 1 1 1 1 1 1 1 2 2 2 1 0 0 1 0 1 1 1 2 2 2 2 3 3 3 2 1 1 0 1 1 2 2 2 2 2
4 4 3 3 2 2 2 2 1 1 1 1 0 1 1 1 1 1 1 0 0 0 1 1 1 1 1 2 0 1 3 4 3 2 1 0 1 1 1 1 2 2 2
3 4 3 3 2 1 1 1 2 2 1 1 1 1 1 1 1 2 1 1 1 1 0 1 0 1 1 1 0 1 0 2 3 3 2 2 1 1 1 1 1 1 1
4 3 3 3 2 1 2 2 3 2 1 1 1 0 1 1 1 2 1 1 1 1 1 1 1 0 1 1 1 0 1 2 1 2 3 2 3 2 1 2 1 1 1
4 3 3 3 2 2 2 3 3 2 1 1 1 1 1 1 1 1 1 1 1 1 0 0 0 0 1 1 1 1 1 1 1 1 3 3 3 2 2 1 0 0 1
3 3 3 3 2 2 2 3 3 3 2 2 1 1 0 0 0 1 1 1 0 0 0 1 1 1 1 1 1 1 1 1 1 1 2 2 3 3 3 1 0 0 1
Wind_Direction
146 152 146 141 136 132 128 124 118 114 111 108 105 103 102 102 103 105 107 110 112 111 110 108 106 105 103 102 103 103 106 110 114 117 119 117 117 119 121 118 115 114 116
145 148 144 141 138 136 134 130 125 121 118 115 113 110 108 106 106 106 108 111 111 110 109 108 108 107 107 106 106 108 111 114 118 121 120 118 118 120 124 123 123 125 124
137 142 142 140 140 140 138 135 131 128 126 123 121 117 114 111 111 110 110 111 111 110 110 109 110 110 110 109 110 113 115 119 123 125 120 112 122 125 127 130 130 131 130
136 139 141 140 141 141 141 140 138 136 134 132 129 126 123 120 119 118 116 115 114 114 115 115 116 116 116 117 118 119 117 122 137 142 134 145 147 136 134 135 137 137 137
132 136 144 141 141 143 143 144 142 140 140 139 137 135 134 132 131 129 127 126 123 124 126 128 128 127 128 130 134 136 128 136 169 180 175 173 159 151 146 146 146 146 146
130 135 143 142 143 144 145 146 146 144 144 145 145 144 144 143 141 139 139 139 138 140 139 141 146 148 154 164 194 221 227 254 222 190 183 174 169 168 162 160 157 155 155
133 134 140 141 144 146 147 147 148 148 148 149 151 152 152 152 152 153 154 154 154 158 163 166 168 172 187 208 234 259 279 287 241 182 176 175 186 179 172 169 165 164 164
137 135 140 145 146 147 149 150 151 152 153 155 156 157 160 164 166 169 173 173 176 181 187 192 197 202 214 230 246 263 276 284 283 221 186 190 194 186 180 176 173 173 171
137 137 141 150 150 151 151 153 155 156 158 160 163 166 170 176 182 186 191 193 196 201 208 212 216 220 227 237 250 263 271 277 287 265 213 194 200 194 188 183 180 180 178
138 144 146 149 147 149 154 160 162 163 165 169 174 179 186 191 197 202 203 209 212 215 221 225 229 233 236 243 251 260 266 274 271 252 213 208 205 200 195 190 188 188 187
144 152 154 155 156 155 160 167 166 169 174 178 184 192 195 200 208 216 220 220 222 225 229 233 234 238 241 247 255 262 265 237 236 243 218 218 212 207 200 197 195 194 194
158 165 164 164 162 162 170 161 167 176 180 183 189 199 198 202 216 224 229 229 230 232 236 239 241 242 246 246 256 262 251 236 236 243 232 228 216 208 203 202 202 201 200
162 165 169 166 163 166 165 157 172 177 180 191 195 199 199 205 221 227 221 237 240 243 242 249 251 241 238 238 241 240 237 236 229 245 241 231 220 212 209 207 207 207 207
154 161 163 163 165 170 160 166 174 178 180 189 197 192 180 187 198 201 209 219 224 234 235 237 237 240 241 243 243 240 238 232 224 228 248 238 228 221 217 212 211 212 213
156 157 155 157 160 160 154 171 166 175 178 183 181 179 167 165 174 184 200 206 215 223 227 236 241 247 250 256 255 248 243 237 226 217 241 241 231 223 220 217 216 219 220
155 153 149 149 153 150 151 162 162 168 166 165 161 165 158 161 164 169 177 191 221 234 240 239 242 241 253 253 264 264 254 238 231 224 226 240 235 228 221 222 218 218 221
151 141 142 144 142 145 146 153 153 154 149 151 161 151 150 152 145 141 144 223 261 260 257 254 268 248 271 277 277 273 262 244 234 227 227 228 245 238 225 223 219 217 217
139 137 149 146 140 143 145 151 157 150 147 154 155 138 141 148 133 121 120 268 285 303 298 236 258 291 290 292 291 283 270 262 258 240 230 226 230 245 236 227 222 220 219
149 145 140 132 138 145 144 141 136 127 129 140 139 133 141 125 118 115 135 266 328 4 346 322 359 281 294 300 288 275 270 266 258 256 243 230 218 224 230 233 228 226 225
140 133 127 123 124 123 109 93 87 93 101 113 136 143 135 133 115 109 136 15 27 34 354 345 338 342 291 291 300 303 288 275 264 253 248 231 212 215 218 227 234 239 235
127 114 115 123 138 135 135 136 141 165 145 111 151 143 130 120 120 122 142 50 27 56 336 343 353 343 322 335 343 325 317 309 298 276 263 215 218 227 209 208 215 219 231
136 131 126 134 148 155 164 170 168 151 140 140 114 80 93 97 116 141 132 134 31 42 8 10 27 360 319 358 20 333 330 334 342 338 322 277 286 312 272 245 210 205 210
143 138 137 146 150 142 145 119 93 67 51 51 55 36 27 75 81 75 91 102 83 87 23 331 81 136 280 315 49 147 207 282 310 324 344 347 343 330 300 281 236 213 213
157 145 149 150 141 126 117 123 132 129 152 196 178 122 17 55 82 87 85 115 110 96 66 355 44 175 155 299 310 266 202 212 256 311 325 334 331 315 300 306 296 243 202
146 140 139 125 110 104 113 129 124 119 137 123 98 81 38 20 44 73 80 86 74 73 91 250 288 286 180 204 236 271 302 315 227 226 289 315 327 313 302 284 261 237 215
135 128 124 116 99 97 107 115 124 128 124 115 103 116 63 16 19 48 101 104 81 55 300 284 265 250 235 223 233 224 211 221 248 227 251 291 303 301 305 303 278 269 243